sat.trackr.live / text

‹ back to catalog

STARLINK-36199

NORAD 67213 · 2025-304X

PAYLOAD ACTIVE UNKNOWN

§ Identity

Operator
Country
US
Launch date
2025-12-17
Launch site
AFWTR
Launch vehicle
Mass (kg)
RCS (m²)

Purposes: comms

External: N2YO · Heavens-Above · Gunter

§ Orbital elements

Epoch: 2026-05-24T23:03:32.122944Z

Period
96.11 min
Inclination
70.0021°
Eccentricity
0.0002861
Mean motion
14.98339491 rev/d
Perigee alt
570.0 km
Apogee alt
574.0 km
Semi-major
6,950.2 km
B*
3.4015e-4
RAAN
341.9759°
Arg perigee
266.3230°
Mean anomaly
93.7602°
Rev number
2,531

§ Raw data

STARLINK-361991 67213U 25304X   26144.96078846  .00003969  00000+0  34015-3 0  99902 67213  70.0021 341.9759 0002861 266.3230  93.7602 14.98339491 25317

JSON: /api/v1/satellites/67213 · /tle

For live sub-satellite position, see the globe view (requires WebGL).

§ Visibility from observer

Set your observer location to see the next 7 days of passes ≥ 10°. The values pass through the URL so the page stays shareable.

No JS? Fill the form by hand. The geolocation button needs JavaScript.